Location: Briis
(48.6240°N, 2.1211°E)
Time: 10:23:01
(UTC+00:00)

BREEZE-M DEB (TANK) - Pass Details

Date: 25 September 2020
Orbit: 310 x 13941 km, 49.6° (Epoch: 30 October)

Event Time Altitude Azimuth Distance (km) Brightness Sun altitude
Exits shadow 04:06:11 35° 255° (WSW) 855 3.2 -16.5°
Maximum altitude 04:07:31 89° 173° (S) 651 3.1 -16.3°
Drops below altitude 10° 04:15:25 10° 78° (ENE) 4,031 8.6 -15.1°
Sets 04:21:35 0° 79° (E) 6,662 10.3 -14.1°
